NOAA 16 DEB, 41347

Orbit data source: Space-Track

NOAA 16 DEB, 41347 is space debris in SSO originally from a launch on Thu, 21 Sep 2000 UTC launched from the Air Force Western Test Range (AFWTR). Debris objects in space refer to the collection of defunct objects orbiting the Earth. Examples of debris include non-operational satellites, rocket bodies, and fragments generated from explosions, collisions, or faulty payload assembly.

Loading next visibility...
Identifier
41347, 2000-055HQ
Orbit
SSO
Country
Flag of USUS
Related business
Manufacturer
Unknown
Mission
Spacecraft
Bus & Motor
Unknown
Mass
Unknown
Launch date (UTC)
2000-09-21 (25 years ago)
Launch vehicle
Unknown
Launch site
Air Force Western Test Range (AFWTR)
Object type
Payload
Rocket body
Debris
Shape & HBR
Unknown shape, 0.1 m
Radar Cross Section
Small (<0.1 m²)

Expand to show TLE details & history
Last TLE update: 1 day ago

TLE from 1 day ago
0 NOAA 16 DEB
1 41347U 00055HQ  25340.45083947  .00012131  00000-0  44450-2 0  9990
2 41347  98.7115  51.8366 0020874 205.1244 154.8926 14.32836886509604
Epoch: 2025-12-06T10:49Z
TLE epoch observation values (Epoch: 2025-12-06T10:49:12.530Z)
Latitude
0.00003°
Longitude
174.05599°
Altitude
798.739 km
Speed
7.447 km/s
True Right ascension
03h 27m 20s
True Declination
0° 00' 00"
Sunlit
Object was in full shadow at epoch
Visualization orbit readout
Latitude
Unknown
Longitude
Unknown
Altitude
Unknown
Speed
Unknown
Apparent Right ascension
Unknown
Apparent Declination
Unknown
Sunlit
N/A
Visualization observer readout
Local Sidereal Time
11:43:49
Azimuth
Unknown
Elevation
Unknown
Doppler factor
Unknown
Orbital elements
Apogee altitude
794.346 km
Perigee altitude
764.465 km
Semi-major axis
7,157.542 km
Eccentricity
0.00209
Inclination
98.7115°
RAAN
51.8366°
Arg. of periapsis
205.1244°
True anomaly
154.99386°
Mean anomaly
154.8926°
Eccentric anomaly
154.94325°
Mean motion
3.58424 °/min
Orbital period
100.44 mins
BSTAR
0.004445
Loading maneuver chart data...
Computing Atmospheric mass density...
Loading historical data...
Loading historical data...
Loading historical data...
Loading historical data...
Loading historical data...
Loading historical data...
Loading historical data...

Documentation

Showing up to 5 results
|